Location: Neu-Ulm
(48.3873°N, 10.0192°E)
Time: 03:54:47
(UTC+01:00)

ISS - Pass Details

Date: 13 November 2017
Orbit: 401 x 407 km, 51.6° (Epoch: 18 November)

Event Time Altitude Azimuth Distance (km) Brightness Sun altitude
Exits shadow 05:02:52 40° 73° (ENE) 611 -2.5 -23.5°
Drops below altitude 10° 05:05:10 10° 95° (E) 1,454 0.1 -23.1°
Sets 05:07:16 0° 99° (E) 2,312 1.5 -22.7°
